S-Net C (43189 NORAD) Tracking and Keplerian Element Data

This shows tracking and keplerian element data for the satellite.

Feedback or suggestion? Click here.




ElementValue
Catalog43189
NameS-Net C
Epoch Orbit34562
Epoch Day159.68009087
Epoch Year2024
RAAN61.6936
Inclination97.595
Eccentricity0.0013665
Argument of Perigee33.3093
Mean Anonmoly326.8991
Mean Motion15.04475531
Decay Rate8.374E-05
L11 43189U 18014K 24159.68009087 .00008374 00000-0 60128-3 0 9990
L22 43189 97.5950 61.6936 0013665 33.3093 326.8991 15.04475531345628



Live tracking and technical data element details for S-Net C (NORAD 43189). S-Net C can be tracked NOW for your location showing map with azimuth and elevation plus other details from your city location.







IsCatalogInMostPopularTable: catalog: 43189, numindb: 677
Update: records affected: 1



GetName: 43189 S-Net C

Hit Count: updated at: Fri, 14 Jun 2024 18:02:23 GMT